Location: Lane
(33.5226°N, 79.8788°W)
Time: 07:32:19
(UTC+00:00)

SR - Pass Details

Date: 27 September 2022
Orbit: 577 x 874 km, 66.7° (Epoch: 03 December)

Event Time Altitude Azimuth Distance (km) Brightness Sun altitude
Rises 03:07:09 0° 204° (SSW) 3,356 - -46.9°
Reaches altitude 10° 03:09:32 10° 204° (SSW) 2,456 - -47.3°
Maximum altitude 03:15:18 89° 115° (ESE) 873 - -48.2°
Drops below altitude 10° 03:21:13 10° 26° (NNE) 2,528 - -49.1°
Sets 03:23:43 0° 27° (NNE) 3,462 - -49.4°
